Regional Weather Roundup
Issued by NWS Newport/Morehead, NC

Current Version | Previous Version | Text Only | Print | Product List | Glossary On
Versions: 1 2 3 4 5 6 7 8 9 10 11 12 13 14 15 16 17 18 19 20 21 22 23 24 25 26 27 28 29 30 31 32 33 34 35 36 37 38 39 40 41 42 43 44 45 46 47 48 49 50
676 ASUS42 KMHX 211125 RWRMHX WEATHER ROUNDUP FOR EASTERN NORTH CAROLINA NATIONAL WEATHER SERVICE NEWPORT/MOREHEAD CITY NC 600 AM EST TUE FEB 21 2017 NOTE: "FAIR" INDICATES FEW OR NO CLOUDS BELOW 12,000 FEET WITH NO SIGNIFICANT WEATHER AND/OR OBSTRUCTIONS TO VISIBILITY NCZ015>017-031-032-045>047-102-103-211200- NORTH COAST CITY SKY/WX TMP DP RH WIND PRES REMARKS EDENTON PTCLDY 40 37 89 CALM 30.29S ELIZABETH CITY PTCLDY 43 41 93 N6 30.29R KITTY HAWK NOT AVBL MANTEO CLOUDY 48 41 78 NE8 30.28R $$ NCZ045>047-081-094-103-104-211200- CENTRAL COAST CITY SKY/WX TMP DP RH WIND PRES REMARKS FRISCO PTCLDY 52 47 83 NE6 30.23S $$ NCZ095-097-098-100-101-211200- SOUTHERN COAST CITY SKY/WX TMP DP RH WIND PRES REMARKS BEAUFORT PTCLDY 47 45 93 NE5 30.24R CEDAR ISLAND NOT AVBL JACKSONVILLE CLOUDY 44 42 93 N5 30.25R PINEY ISLAND MOSUNNY N/A N/A N/A NE8 30.24S WILMINGTON CLOUDY 44 42 93 NE5 30.24R $$ NCZ011>013-027>030-043-044-078>080-089-090>093-098-211200- COASTAL PLAIN CITY SKY/WX TMP DP RH WIND PRES REMARKS AHOSKIE N/A 36 35 94 N3 30.30S CLINTON PTCLDY 46 41 81 CALM 30.26S ELIZABETHTOWN CLOUDY 44 41 89 CALM 30.24S GOLDSBORO PTCLDY 43 41 93 CALM 30.25R GREENVILLE CLOUDY 37 37 100 CALM 30.28S HAVELOCK CLOUDY 46 42 86 N6 30.25S KENANSVILLE NOT AVBL KINSTON CLOUDY 40 38 90 CALM 30.28R NEW BERN CLOUDY 43 42 97 NE3 30.27R RICHLANDS PTCLDY 41 40 96 NE5 30.26R ROCKY MOUNT PTCLDY 40 40 100 N3 30.28R WASHINGTON CLOUDY 37 36 95 CALM 30.27S WHITEVILLE PTCLDY 48 42 78 CALM 30.24R $$ AMZ130-135-150-152-154-156-158-170-250-252-270-ANZ085-086-088-633-658-670-211200- MARINE OBSERVATIONS STATION/POSITION TIME TEMP WIND PRES WAVE SWELL AIR SEA DIR/SP/G HT/PER HT/PER (UTC) (F) (DEG/KT/KT) (MB) (FT/S) (FT/S) CHESAPEAKE LIGHT NOT AVBL 64 E VA BEACH 1050 51 53 70/ 16/ 19 1024.9 4/ 6 2/ 8 DUCK 1100 48 48 20/ 8/ 9 1024.9 2 E DUCK 1100 48 N/A 3/ 5 OREGON INLET 1100 51 20/ 9/ 12 1024.8 13E OREGON INLT NOT AVBL HATTERAS CG 1100 53 57 20/ 12/ 15 1023.5 DIAMOND BUOY 1050 63 76 70/ 12/ 16 1023.0 7/ 8 7/ 8 CAPE LOOKOUT 1100 51 20/ 11/ 13 1023.4 BEAUFORT LAB 1100 48 53 20/ 6/ 9 1023.1 30 SE NEW RVR IN 1108 58 50/ 14/ 17 1023.4 30 SE NEW RVR IN 1113 66 N/A 4/ 6 27 SE WRIGHTSVLE 1108 60 63 60/ 14/ 17 1022.7 5 SE WRIGHTSVLE 1108 55 56 60/ 10/ 17 1023.5 225 S CAPE HAT 1050 66 71 50/ 14/ 19 1020.8 5/ 6 2/13 41 SE CHARLESTON 1050 68 67 80/ 16/ 19 1020.6 4/ 6 2/15 $$

USA.gov is the U.S. government's official web portal to all federal, state and local government web resources and services.